Regional Weather Roundup
Issued by NWS

Home | Current Version | Previous Version | Text Only | Print | Product List | Glossary Off
Versions: 1 2 3 4 5 6 7 8 9 10 11 12 13 14 15 16 17 18 19 20 21 22 23 24 25 26 27 28 29 30 31 32 33 34 35 36 37 38 39 40 41 42 43 44 45 46 47 48 49 50

000
ASUS43 KLOT 240710
RWRIL

ILLINOIS REGIONAL WEATHER ROUNDUP
NATIONAL WEATHER SERVICE CHICAGO/ROMEOVILLE IL
200 AM CDT THU JUL 24 2014

NOTE: "FAIR" INDICATES FEW OR NO CLOUDS BELOW 12,000 FEET WITH NO
SIGNIFICANT WEATHER AND/OR OBSTRUCTIONS TO VISIBILITY.

* THESE STATIONS ARE NOT UNDER NWS QUALITY CONTROL. THEY ALSO MAY NOT
  REPORT WEATHER SUCH AS PRECIPITATION OR FOG.

ILZ001-002-007-009-015-016-024-240800-
NORTHWEST ILLINOIS

CITY           SKY/WX    TMP DP  RH WIND       PRES   REMARKS
MOLINE         PTCLDY    60  56  86 E7        30.16R
STERLING*      CLEAR     55  52  88 CALM      30.17F
SAVANNA*       MOCLDY    61  49  65 E3        30.17S
$$

ILZ003-004-008-010-011-017-018-240800-
NORTH CENTRAL ILLINOIS

CITY           SKY/WX    TMP DP  RH WIND       PRES   REMARKS
ROCKFORD       PTCLDY    59  49  69 NE5       30.18F
FREEPORT*      CLEAR     53  51  90 CALM      30.20S
ROCHELLE*      CLEAR     54  50  85 CALM      30.17S
DE KALB*       CLEAR     54  49  85 N6        30.17R
PERU*          CLEAR     57  52  82 N7        30.16S
$$

ILZ005-006-012>014-019>023-240800-
NORTHEAST ILLINOIS

CITY           SKY/WX    TMP DP  RH WIND       PRES   REMARKS
CHICAGO-OHARE  CLEAR     59  50  72 N7        30.14S
CHICAGO-MIDWAY CLEAR     64  54  69 N7        30.13S
AURORA         CLEAR     55  49  80 N7        30.15S
LANSING*       PTCLDY    63  58  82 NE7       30.12S
JOLIET*        CLEAR     57  50  77 N6        30.14F
WAUKEGAN       CLEAR     53  50  89 NW3       30.15S
DUPAGE AIRPORT CLEAR     53  49  86 N6        30.15S
KANKAKEE*      CLEAR     55  52  88 NW3       30.12S
WHEELING       CLEAR     58  51  78 N6        30.16S
MORRIS*        CLEAR     55  50  83 CALM      30.13F
ROMEOVILLE*    CLEAR     56  51  82 N7        30.14S
NORTHERLY ISL    N/A     62  57  83 N8          N/A
$$

LMZ740>746-240800-
SOUTHERN LAKE MICHIGAN

STATION/POSITION SKY/WX   TEMP    WIND        PRES    VSBY  WAVE
                          AIR SEA DIR/SP/G                  HT/PER
                          (F)     (DEG/KT/KT) (MB)    (MI)  (FT/S)
SOUTHERN BUOY              61 60   40/ 10/ 12 1020.3F         2/ 5
WAUKEGAN HARBOR            59     340/  5/  7 1022.4S
HARRISON CRIB              63      40/ 17/ 18   N/A
BURNHAM HARBOR             62      20/  8/ 13   N/A
CALUMET HARBOR             64      20/  8/ 13 1018.8F
MICHIGAN CITY              63      30/ 15/ 17   N/A
MICHIGAN CITY 6N           65 68   50/ 14/ 19   N/A           6/ 2
ST. JOSEPH                 55 51   10/  6/ 10   N/A           4/ 2
$$

ILZ025>027-034>036-040-047-049-050-058-095>099-240800-
WEST-CENTRAL ILLINOIS

CITY           SKY/WX    TMP DP  RH WIND       PRES   REMARKS
QUINCY         CLEAR     61  56  83 NE6       30.12F
GALESBURG*     CLEAR     60  56  85 E5        30.15S
MACOMB*        CLEAR     57  56  98 CALM      30.16F
JACKSONVILLE*  CLEAR     58  56  91 CALM      30.14F
PITTSFIELD*    CLEAR     60  57  89 E3        30.14S
$$

ILZ028>032-037-038-041>044-048-051>054-059>061-240800-
CENTRAL ILLINOIS

CITY           SKY/WX    TMP DP  RH WIND       PRES   REMARKS
PONTIAC        CLEAR     55  54  94 N5        30.13F
PEORIA         CLEAR     62  54  74 CALM      30.15F
LACON*         CLEAR     55  52  90 CALM      30.14F
LINCOLN*       CLEAR     59  54  82 CALM      30.11F
SPRINGFIELD    CLEAR     57  54  89 CALM      30.13F
TAYLORVILLE    CLEAR     54  50  87 N6        30.11F
$$

ILZ033-039-045-046-055>057-062-063-240800-
EAST-CENTRAL ILLINOIS

CITY           SKY/WX    TMP DP  RH WIND       PRES   REMARKS
CHAMPAIGN      CLEAR     57  51  80 N10       30.10F
DANVILLE*      CLEAR     54  52  92 N7        30.06F
RANTOUL*       CLEAR     58  50  75 N10G16    30.11F
MATTOON        CLEAR     54  50  86 N6        30.09S
PARIS*         PTCLDY    55  52  90 N3        30.09S
$$

ILZ079-100>102-240800-
SOUTHWEST ILLINOIS

CITY           SKY/WX    TMP DP  RH WIND       PRES   REMARKS
ALTON          CLEAR     61  57  87 CALM      30.11S
BELLEVILLE     CLEAR     62  55  79 N1        30.09F
CAHOKIA*       CLEAR     62  55  77 CALM      30.10F
SPARTA*        CLEAR     59  52  77 N6        30.10F
$$

ILZ064>066-069>071-074>076-080>082-084>086-088>090-092>094-240800-
SOUTH-CENTRAL ILLINOIS

CITY           SKY/WX    TMP DP  RH WIND       PRES   REMARKS
CARBONDALE     CLEAR     63  52  67 N6        30.07F
CAIRO*         CLEAR     68  58  71 N8        30.05S
EFFINGHAM*     CLEAR     58  49  73 N6        30.09F
MARION         CLEAR     63  52  67 N8        30.07S
MT. VERNON     CLEAR     55  48  76 CALM      30.08F
CENTRALIA*     CLEAR     58  50  75 N6        30.08F
SALEM*         CLEAR     57  53  87 N5        30.09F
METROPOLIS*    CLEAR     66  55  67 N5        30.03S
$$

ILZ067-068-072-073-078-083-087-091-240800-
SOUTHEAST ILLINOIS

CITY           SKY/WX    TMP DP  RH WIND       PRES   REMARKS
LAWRENCEVILLE  MOCLDY    60  52  74 N3        30.05F
FLORA*         CLEAR     56  50  82 N6        30.08F
FAIRFIELD*     CLEAR     59  54  82 N6        30.06F
HARRISBURG*    CLEAR     61  55  83 N3        30.07S
ROBINSON*      PTCLDY    58  53  84 CALM      30.06F
CARMI*         CLEAR     61  57  88 NW6       30.04F
$$

ABBREVIATIONS USED IN REMARKS
   TC - TEMPERATURE IN CELSIUS
  WCI - WIND CHILL INDEX
   HX - HEAT INDEX
  VSB - VISIBILITY
$$



USA.gov is the U.S. government's official web portal to all federal, state and local government web resources and services.